Location: Losili
(4.4086°N, 32.7049°E)
Time: 05:48:31
(UTC+00:00)

Cosmos 2154 Rocket - Pass Details

Date: 18 September 2019
Orbit: 965 x 997 km, 82.9° (Epoch: 14 October)

Event Time Altitude Azimuth Distance (km) Brightness Sun altitude
Rises 17:10:50 0° 6° (N) 3,641 7.0 -21.6°
Reaches altitude 10° 17:13:23 10° 10° (N) 2,699 6.2 -22.3°
Maximum altitude 17:19:23 54° 87° (E) 1,167 4.0 -23.8°
Enters shadow 17:20:34 47° 123° (ESE) 1,262 4.2 -24.1°
